| time (UTC) | temp F | wind direction | speed knots | gust knots | rain 1hr in | rain 24hr in | rain mn in | humidity % | barometer mb |
| 20260507112554 | 57 | 325 | 0.0 | 0.0 | 0.00 | 0.12 | 0.05 | 1 | 1011.7 |
| 20260507112054 | 57 | 325 | 0.0 | 0.0 | 0.00 | 0.12 | 0.05 | 1 | 1011.7 |
| 20260507111550 | 57 | 325 | 0.0 | 0.0 | 0.00 | 0.12 | 0.05 | 1 | 1011.3 |
| 20260507111047 | 57 | 325 | 0.0 | 0.0 | 0.00 | 0.12 | 0.05 | 1 | 1011.3 |
| 20260507110546 | 57 | 325 | 0.0 | 0.0 | 0.00 | 0.12 | 0.05 | 1 | 1011.7 |
| 20260507110056 | 57 | 325 | 0.0 | 0.0 | 0.00 | 0.12 | 0.05 | 1 | 1011.7 |
| 20260507105544 | 57 | 325 | 0.0 | 0.0 | 0.01 | 0.12 | 0.05 | 1 | 1011.5 |
| 20260507105042 | 57 | 325 | 0.0 | 0.0 | 0.01 | 0.12 | 0.05 | 1 | 1011.4 |
| 20260507104548 | 57 | 325 | 0.0 | 0.0 | 0.01 | 0.12 | 0.05 | 1 | 1011.4 |
| 20260507104039 | 57 | 325 | 0.0 | 0.0 | 0.02 | 0.12 | 0.05 | 1 | 1011.2 |
| 20260507103541 | 57 | 325 | 0.0 | 1.7 | 0.02 | 0.12 | 0.05 | 1 | 1011.2 |
| 20260507103055 | 57 | 321 | 0.0 | 0.0 | 0.02 | 0.12 | 0.05 | 1 | 1011.1 |
| 20260507102534 | 57 | 321 | 0.0 | 0.0 | 0.02 | 0.12 | 0.05 | 1 | 1010.9 |
| 20260507102033 | 58 | 321 | 0.0 | 0.0 | 0.02 | 0.12 | 0.05 | 1 | 1010.8 |
| 20260507101535 | 58 | 339 | 0.0 | 0.0 | 0.02 | 0.12 | 0.05 | 1 | 1010.9 |
| 20260507101032 | 58 | 339 | 0.0 | 0.0 | 0.02 | 0.12 | 0.05 | 1 | 1010.9 |
| 20260507100529 | 58 | 344 | 0.0 | 0.0 | 0.02 | 0.12 | 0.05 | 1 | 1011.0 |
| 20260507100029 | 58 | 344 | 0.0 | 0.0 | 0.03 | 0.12 | 0.05 | 1 | 1011.2 |
| 20260507095526 | 58 | 344 | 0.0 | 1.7 | 0.02 | 0.11 | 0.04 | 1 | 1011.2 |
| 20260507095025 | 59 | 344 | 0.0 | 3.5 | 0.03 | 0.11 | 0.04 | 1 | 1011.2 |
| 20260507094523 | 59 | 355 | 0.9 | 3.5 | 0.03 | 0.11 | 0.04 | 1 | 1010.9 |
| 20260507094021 | 59 | 327 | 0.0 | 2.6 | 0.03 | 0.10 | 0.03 | 1 | 1010.8 |
| 20260507093523 | 59 | 327 | 0.0 | 3.5 | 0.03 | 0.10 | 0.03 | 1 | 1011.1 |
| 20260507093018 | 59 | 327 | 0.0 | 1.7 | 0.03 | 0.10 | 0.03 | 1 | 1011.2 |
| 20260507092517 | 60 | 327 | 0.9 | 1.7 | 0.03 | 0.10 | 0.03 | 1 | 1011.0 |
| 20260507092016 | 60 | 327 | 0.0 | 5.2 | 0.03 | 0.10 | 0.03 | 1 | 1011.1 |
| 20260507091514 | 60 | 327 | 0.0 | 5.2 | 0.03 | 0.10 | 0.03 | 1 | 1011.0 |
| 20260507091012 | 61 | 141 | 0.0 | 3.5 | 0.03 | 0.10 | 0.03 | 1 | 1010.9 |
| 20260507090510 | 61 | 289 | 0.0 | 2.6 | 0.03 | 0.10 | 0.03 | 1 | 1010.8 |
| 20260507090011 | 62 | 328 | 0.0 | 4.3 | 0.02 | 0.09 | 0.02 | 1 | 1010.8 |
| 20260507085508 | 62 | 322 | 0.0 | 7.0 | 0.02 | 0.09 | 0.02 | 1 | 1010.8 |
| 20260507085010 | 63 | 328 | 0.9 | 7.0 | 0.01 | 0.08 | 0.01 | 1 | 1010.7 |
| 20260507084519 | 64 | 274 | 0.9 | 4.3 | 0.00 | 0.07 | 0.00 | 1 | 1010.8 |
| 20260507084004 | 65 | 191 | 0.9 | 4.3 | 0.00 | 0.07 | 0.00 | 1 | 1010.5 |
| 20260507083502 | 66 | 334 | 0.9 | 5.2 | 0.00 | 0.07 | 0.00 | 1 | 1010.4 |
| 20260507082601 | 67 | 319 | 0.0 | 2.6 | 0.00 | 0.07 | 0.00 | 1 | 1009.9 |
| 20260507082101 | 68 | 210 | 0.0 | 0.0 | 0.00 | 0.07 | 0.00 | 1 | 1010.0 |
| 20260507081559 | 68 | 210 | 0.0 | 0.0 | 0.00 | 0.07 | 0.00 | 1 | 1010.1 |
| 20260507081055 | 68 | 210 | 0.0 | 0.0 | 0.00 | 0.07 | 0.00 | 1 | 1010.1 |
| 20260507080553 | 68 | 210 | 0.0 | 0.0 | 0.00 | 0.07 | 0.00 | 1 | 1010.1 |
| 20260507080055 | 68 | 210 | 0.0 | 0.0 | 0.00 | 0.07 | 0.00 | 1 | 1010.0 |
| 20260507075554 | 68 | 210 | 0.0 | 0.0 | 0.00 | 0.07 | 0.00 | 1 | 1009.9 |
| 20260507075051 | 68 | 210 | 0.0 | 0.0 | 0.00 | 0.07 | 0.00 | 1 | 1009.5 |
| 20260507074552 | 68 | 210 | 0.0 | 0.0 | 0.00 | 0.07 | 0.00 | 1 | 1009.2 |
| 20260507074047 | 68 | 210 | 0.0 | 0.0 | 0.00 | 0.07 | 0.00 | 1 | 1009.4 |
| 20260507073546 | 69 | 210 | 0.0 | 0.0 | 0.00 | 0.07 | 0.00 | 1 | 1009.5 |
| 20260507073045 | 69 | 210 | 0.0 | 0.0 | 0.00 | 0.07 | 0.00 | 1 | 1009.6 |
| 20260507072543 | 69 | 210 | 0.0 | 0.0 | 0.00 | 0.07 | 0.00 | 1 | 1009.4 |
| 20260507072041 | 69 | 210 | 0.0 | 0.0 | 0.00 | 0.07 | 0.00 | 1 | 1009.6 |
| 20260507071541 | 69 | 210 | 0.0 | 2.6 | 0.00 | 0.07 | 0.00 | 1 | 1009.3 |
| 20260507071038 | 69 | 210 | 0.9 | 2.6 | 0.00 | 0.07 | 0.00 | 1 | 1009.8 |
| 20260507070537 | 69 | 210 | 0.0 | 2.6 | 0.00 | 0.07 | 0.00 | 1 | 1009.7 |
| 20260507070053 | 69 | 209 | 0.9 | 3.5 | 0.00 | 0.07 | 0.00 | 1 | 1009.7 |
| 20260507065534 | 69 | 192 | 0.9 | 2.6 | 0.00 | 0.07 | 0.00 | 1 | 1009.3 |
| 20260507065033 | 69 | 192 | 0.0 | 2.6 | 0.00 | 0.07 | 0.00 | 1 | 1009.4 |
| 20260507064531 | 69 | 192 | 0.9 | 2.6 | 0.00 | 0.07 | 0.00 | 1 | 1009.5 |
| 20260507064030 | 69 | 192 | 0.0 | 2.6 | 0.00 | 0.07 | 0.00 | 1 | 1009.4 |
| 20260507063529 | 69 | 190 | 0.0 | 1.7 | 0.00 | 0.07 | 0.00 | 1 | 1009.3 |
| 20260507063027 | 69 | 193 | 0.0 | 2.6 | 0.00 | 0.07 | 0.00 | 1 | 1009.1 |
| 20260507062524 | 69 | 193 | 0.0 | 2.6 | 0.00 | 0.07 | 0.00 | 1 | 1009.1 |
| 20260507062024 | 69 | 153 | 0.0 | 0.0 | 0.00 | 0.07 | 0.00 | 1 | 1009.1 |
| 20260507061522 | 69 | 153 | 0.0 | 3.5 | 0.00 | 0.07 | 0.00 | 1 | 1008.9 |
| 20260507061020 | 69 | 153 | 0.0 | 3.5 | 0.00 | 0.07 | 0.00 | 1 | 1008.9 |
| 20260507060518 | 69 | 193 | 0.0 | 0.0 | 0.00 | 0.07 | 0.00 | 1 | 1008.9 |
| 20260507060021 | 69 | 197 | 0.0 | 0.0 | 0.00 | 0.07 | 0.00 | 1 | 1009.0 |
| 20260507055516 | 69 | 196 | 0.0 | 0.0 | 0.00 | 0.07 | 0.00 | 1 | 1008.9 |
| 20260507055014 | 69 | 196 | 0.0 | 1.7 | 0.00 | 0.07 | 0.00 | 1 | 1009.1 |
| 20260507054512 | 69 | 196 | 0.0 | 1.7 | 0.00 | 0.07 | 0.00 | 1 | 1009.4 |
| 20260507054015 | 69 | 196 | 0.0 | 0.0 | 0.00 | 0.07 | 0.00 | 1 | 1009.3 |
| 20260507053510 | 69 | 196 | 0.0 | 0.0 | 0.00 | 0.07 | 0.00 | 1 | 1009.1 |
| 20260507053009 | 69 | 199 | 0.0 | 0.9 | 0.00 | 0.07 | 0.00 | 1 | 1009.1 |
| 20260507052507 | 69 | 199 | 0.0 | 2.6 | 0.00 | 0.07 | 0.00 | 1 | 1009.2 |
| 20260507052005 | 69 | 199 | 0.0 | 1.7 | 0.00 | 0.07 | 0.00 | 1 | 1009.4 |
| 20260507051504 | 69 | 199 | 0.0 | 1.7 | 0.00 | 0.07 | 0.00 | 1 | 1009.6 |
| 20260507051002 | 69 | 199 | 0.0 | 2.6 | 0.00 | 0.07 | 0.00 | 1 | 1009.7 |
| 20260507050502 | 69 | 199 | 0.0 | 2.6 | 0.00 | 0.07 | 0.00 | 1 | 1009.9 |
| 20260507050100 | 69 | 199 | 0.0 | 4.3 | 0.00 | 0.07 | 0.00 | 1 | 1010.1 |
| 20260507045559 | 69 | 162 | 0.9 | 4.3 | 0.00 | 0.07 | 0.00 | 1 | 1010.2 |
| 20260507045057 | 69 | 209 | 0.9 | 3.5 | 0.00 | 0.07 | 0.00 | 1 | 1010.3 |
| 20260507044559 | 69 | 208 | 1.7 | 3.5 | 0.00 | 0.07 | 0.00 | 1 | 1010.3 |
| 20260507044056 | 69 | 207 | 1.7 | 4.3 | 0.00 | 0.07 | 0.00 | 1 | 1010.2 |
| 20260507043553 | 69 | 201 | 2.6 | 4.3 | 0.00 | 0.07 | 0.00 | 1 | 1010.2 |
| 20260507043052 | 69 | 218 | 1.7 | 5.2 | 0.00 | 0.07 | 0.00 | 1 | 1010.4 |
| 20260507042553 | 69 | 173 | 1.7 | 2.6 | 0.00 | 0.07 | 0.00 | 1 | 1010.4 |
| 20260507042048 | 69 | 211 | 0.9 | 3.5 | 0.00 | 0.07 | 0.00 | 1 | 1010.5 |
| 20260507041559 | 69 | 211 | 0.0 | 3.5 | 0.00 | 0.07 | 0.00 | 1 | 1010.4 |
| 20260507041045 | 69 | 209 | 0.9 | 2.6 | 0.00 | 0.07 | 0.00 | 1 | 1010.4 |
| 20260507040544 | 69 | 210 | 0.0 | 1.7 | 0.00 | 0.07 | 0.00 | 1 | 1010.2 |
| 20260507040044 | 69 | 211 | 0.0 | 2.6 | 0.00 | 0.07 | 0.00 | 1 | 1010.2 |
| 20260507035542 | 69 | 211 | 0.0 | 3.5 | 0.00 | 0.07 | 0.07 | 1 | 1010.1 |
| 20260507035042 | 68 | 216 | 0.9 | 3.5 | 0.00 | 0.07 | 0.07 | 1 | 1010.4 |
| 20260507034542 | 68 | 189 | 0.0 | 2.6 | 0.00 | 0.07 | 0.07 | 1 | 1010.4 |
| 20260507034041 | 68 | 187 | 0.9 | 2.6 | 0.00 | 0.07 | 0.07 | 1 | 1010.5 |
| 20260507033541 | 68 | 188 | 0.0 | 2.6 | 0.00 | 0.07 | 0.07 | 1 | 1010.3 |
| 20260507033042 | 68 | 182 | 0.0 | 1.7 | 0.00 | 0.07 | 0.07 | 1 | 1010.4 |
| 20260507032542 | 68 | 182 | 0.0 | 1.7 | 0.00 | 0.07 | 0.07 | 1 | 1010.0 |
| 20260507032041 | 68 | 188 | 0.0 | 2.6 | 0.00 | 0.07 | 0.07 | 1 | 1010.0 |
| 20260507031542 | 68 | 192 | 0.0 | 2.6 | 0.00 | 0.07 | 0.07 | 1 | 1009.8 |
| 20260507031041 | 68 | 192 | 0.0 | 1.7 | 0.00 | 0.07 | 0.07 | 1 | 1009.9 |
| 20260507030541 | 68 | 192 | 0.0 | 2.6 | 0.00 | 0.07 | 0.07 | 1 | 1010.0 |
| 20260507030041 | 68 | 192 | 0.0 | 2.6 | 0.00 | 0.07 | 0.07 | 1 | 1010.0 |
| 20260507025540 | 68 | 192 | 0.0 | 7.8 | 0.00 | 0.07 | 0.07 | 1 | 1009.9 |
| 20260507025040 | 68 | 192 | 0.9 | 7.8 | 0.00 | 0.07 | 0.07 | 1 | 1009.8 |
| 20260507024540 | 68 | 144 | 0.0 | 2.6 | 0.00 | 0.07 | 0.07 | 1 | 1009.8 |
| 20260507024040 | 68 | 143 | 0.0 | 0.0 | 0.00 | 0.07 | 0.07 | 1 | 1009.9 |
| 20260507023539 | 68 | 143 | 0.0 | 3.5 | 0.00 | 0.07 | 0.07 | 1 | 1010.1 |
| 20260507023039 | 68 | 143 | 0.9 | 3.5 | 0.00 | 0.07 | 0.07 | 1 | 1010.1 |
| 20260507022539 | 68 | 164 | 0.0 | 1.7 | 0.00 | 0.07 | 0.07 | 1 | 1010.1 |
| 20260507022040 | 68 | 164 | 0.0 | 1.7 | 0.00 | 0.07 | 0.07 | 1 | 1010.2 |
| 20260507021540 | 68 | 164 | 0.0 | 3.5 | 0.00 | 0.07 | 0.07 | 1 | 1010.3 |
| 20260507021038 | 68 | 164 | 0.9 | 3.5 | 0.00 | 0.07 | 0.07 | 1 | 1010.2 |
| 20260507020537 | 68 | 146 | 0.0 | 0.0 | 0.00 | 0.07 | 0.07 | 1 | 1010.4 |
| 20260507020041 | 68 | 146 | 0.0 | 4.3 | 0.00 | 0.07 | 0.07 | 1 | 1010.5 |
| 20260507015533 | 68 | 146 | 0.0 | 4.3 | 0.00 | 0.07 | 0.07 | 1 | 1010.5 |
| 20260507015032 | 68 | 166 | 0.0 | 1.7 | 0.00 | 0.07 | 0.07 | 1 | 1010.4 |
| 20260507014532 | 68 | 166 | 0.0 | 1.7 | 0.00 | 0.07 | 0.07 | 1 | 1010.5 |
| 20260507014029 | 68 | 166 | 0.0 | 1.7 | 0.00 | 0.07 | 0.07 | 1 | 1010.4 |
| 20260507013527 | 68 | 166 | 0.0 | 0.0 | 0.00 | 0.07 | 0.07 | 1 | 1010.4 |
| 20260507013026 | 68 | 166 | 0.0 | 0.0 | 0.00 | 0.07 | 0.07 | 1 | 1010.3 |
| 20260507012525 | 68 | 166 | 0.0 | 0.0 | 0.00 | 0.07 | 0.07 | 1 | 1010.3 |
| 20260507012025 | 68 | 166 | 0.0 | 0.0 | 0.00 | 0.07 | 0.07 | 1 | 1010.2 |
| 20260507011524 | 68 | 166 | 0.0 | 0.0 | 0.00 | 0.07 | 0.07 | 1 | 1010.3 |
| 20260507011020 | 69 | 166 | 0.0 | 0.0 | 0.00 | 0.07 | 0.07 | 1 | 1010.3 |
| 20260507010522 | 69 | 166 | 0.0 | 1.7 | 0.00 | 0.07 | 0.07 | 1 | 1010.2 |
| 20260507010024 | 69 | 166 | 0.0 | 1.7 | 0.00 | 0.07 | 0.07 | 1 | 1010.2 |
| 20260507005516 | 69 | 160 | 0.0 | 0.0 | 0.00 | 0.07 | 0.07 | 1 | 1010.2 |
| 20260507005014 | 69 | 160 | 0.0 | 0.0 | 0.00 | 0.07 | 0.07 | 1 | 1010.2 |
| 20260507004513 | 69 | 160 | 0.0 | 0.0 | 0.00 | 0.07 | 0.07 | 1 | 1010.1 |
| 20260507004012 | 69 | 160 | 0.0 | 0.0 | 0.00 | 0.07 | 0.07 | 1 | 1010.3 |
| 20260507003511 | 69 | 160 | 0.0 | 0.0 | 0.00 | 0.07 | 0.07 | 1 | 1010.2 |
| 20260507003008 | 69 | 160 | 0.0 | 0.0 | 0.00 | 0.07 | 0.07 | 1 | 1010.4 |
| 20260507002507 | 69 | 160 | 0.0 | 0.0 | 0.00 | 0.07 | 0.07 | 1 | 1010.3 |
| 20260507002006 | 70 | 160 | 0.0 | 0.0 | 0.00 | 0.07 | 0.07 | 1 | 1010.3 |
| 20260507001506 | 70 | 160 | 0.0 | 0.0 | 0.00 | 0.07 | 0.07 | 1 | 1010.4 |
| 20260507001006 | 70 | 160 | 0.0 | 0.9 | 0.00 | 0.07 | 0.07 | 1 | 1010.5 |
| 20260507000506 | 70 | 160 | 0.0 | 2.6 | 0.00 | 0.07 | 0.07 | 1 | 1010.5 |
| 20260507000007 | 70 | 160 | 0.0 | 2.6 | 0.00 | 0.07 | 0.07 | 1 | 1010.4 |
| 20260506235507 | 70 | 159 | 0.0 | 2.6 | 0.00 | 0.07 | 0.07 | 1 | 1010.3 |
| 20260506235003 | 70 | 159 | 0.9 | 2.6 | 0.00 | 0.07 | 0.07 | 1 | 1010.2 |
| 20260506234505 | 70 | 121 | 0.0 | 1.7 | 0.00 | 0.07 | 0.07 | 1 | 1010.2 |
| 20260506234004 | 70 | 121 | 0.9 | 3.5 | 0.00 | 0.07 | 0.07 | 1 | 1010.1 |
| 20260506233504 | 70 | 115 | 0.0 | 3.5 | 0.00 | 0.07 | 0.07 | 1 | 1009.9 |
| 20260506233003 | 70 | 197 | 0.0 | 0.0 | 0.00 | 0.07 | 0.07 | 1 | 1010.0 |
| 20260506232504 | 70 | 197 | 0.0 | 2.6 | 0.00 | 0.07 | 0.07 | 1 | 1010.1 |
| 20260506232003 | 70 | 197 | 0.0 | 3.5 | 0.00 | 0.07 | 0.07 | 1 | 1010.0 |
| 20260506231506 | 71 | 197 | 0.9 | 3.5 | 0.00 | 0.07 | 0.07 | 1 | 1010.0 |
| 20260506231003 | 71 | 222 | 0.0 | 0.0 | 0.00 | 0.07 | 0.07 | 1 | 1010.1 |
| 20260506230500 | 71 | 222 | 0.0 | 1.7 | 0.00 | 0.07 | 0.07 | 1 | 1009.9 |
| 20260506230105 | 71 | 222 | 0.0 | 2.6 | 0.00 | 0.07 | 0.07 | 1 | 1010.0 |
| 20260506225558 | 70 | 222 | 0.0 | 2.6 | 0.00 | 0.07 | 0.07 | 1 | 1010.1 |
| 20260506225056 | 70 | 223 | 0.0 | 0.0 | 0.00 | 0.07 | 0.07 | 1 | 1010.1 |
| 20260506224555 | 70 | 223 | 0.0 | 2.6 | 0.00 | 0.07 | 0.07 | 1 | 1010.0 |
| 20260506224053 | 70 | 223 | 0.9 | 2.6 | 0.00 | 0.07 | 0.07 | 1 | 1010.1 |
| 20260506223552 | 70 | 223 | 0.0 | 2.6 | 0.00 | 0.07 | 0.07 | 1 | 1010.0 |
| 20260506223051 | 70 | 223 | 0.9 | 4.3 | 0.00 | 0.07 | 0.07 | 1 | 1010.0 |
| 20260506222551 | 70 | 223 | 0.9 | 4.3 | 0.00 | 0.07 | 0.07 | 1 | 1010.0 |
| 20260506222047 | 71 | 140 | 0.0 | 2.6 | 0.00 | 0.07 | 0.07 | 1 | 1010.0 |
| 20260506221555 | 71 | 136 | 0.0 | 2.6 | 0.00 | 0.07 | 0.07 | 1 | 1010.0 |
| 20260506221045 | 71 | 136 | 0.0 | 3.5 | 0.00 | 0.07 | 0.07 | 1 | 1010.0 |
| 20260506220544 | 70 | 134 | 0.9 | 3.5 | 0.00 | 0.07 | 0.07 | 1 | 1009.9 |
| 20260506220046 | 70 | 238 | 0.0 | 3.5 | 0.00 | 0.07 | 0.07 | 1 | 1009.9 |
| 20260506215541 | 70 | 238 | 0.9 | 3.5 | 0.00 | 0.07 | 0.07 | 1 | 1009.9 |
| 20260506215041 | 71 | 244 | 0.9 | 3.5 | 0.00 | 0.07 | 0.07 | 1 | 1009.8 |
| 20260506214538 | 71 | 217 | 0.0 | 3.5 | 0.00 | 0.07 | 0.07 | 1 | 1009.9 |
| 20260506214037 | 71 | 217 | 1.7 | 6.1 | 0.00 | 0.07 | 0.07 | 1 | 1009.9 |
| 20260506213536 | 71 | 240 | 1.7 | 6.1 | 0.00 | 0.07 | 0.07 | 1 | 1010.0 |
| 20260506213041 | 71 | 252 | 0.9 | 3.5 | 0.00 | 0.07 | 0.07 | 1 | 1010.1 |
| 20260506212532 | 71 | 236 | 1.7 | 3.5 | 0.00 | 0.07 | 0.07 | 1 | 1010.1 |
| 20260506212034 | 71 | 275 | 0.9 | 4.3 | 0.00 | 0.07 | 0.07 | 1 | 1010.2 |
| 20260506211539 | 71 | 236 | 0.9 | 4.3 | 0.00 | 0.07 | 0.07 | 1 | 1010.2 |
| 20260506211028 | 71 | 250 | 0.9 | 3.5 | 0.00 | 0.07 | 0.07 | 1 | 1010.1 |
| 20260506210526 | 70 | 136 | 0.9 | 3.5 | 0.00 | 0.07 | 0.07 | 1 | 1010.1 |
| 20260506210033 | 70 | 146 | 0.9 | 3.5 | 0.00 | 0.07 | 0.07 | 1 | 1009.9 |
| 20260506205523 | 70 | 209 | 0.0 | 3.5 | 0.00 | 0.07 | 0.07 | 1 | 1009.9 |
| 20260506205021 | 70 | 209 | 0.9 | 4.3 | 0.00 | 0.07 | 0.07 | 1 | 1010.0 |
| 20260506204523 | 70 | 209 | 0.9 | 4.3 | 0.00 | 0.07 | 0.07 | 1 | 1010.0 |
| 20260506204019 | 70 | 133 | 0.9 | 4.3 | 0.00 | 0.07 | 0.07 | 1 | 1010.0 |
| 20260506203517 | 70 | 201 | 0.0 | 2.6 | 0.00 | 0.07 | 0.07 | 1 | 1010.0 |
| 20260506203015 | 69 | 142 | 0.0 | 2.6 | 0.00 | 0.07 | 0.07 | 1 | 1009.9 |
| 20260506202514 | 69 | 142 | 0.0 | 1.7 | 0.00 | 0.07 | 0.07 | 1 | 1010.0 |
| 20260506202015 | 69 | 142 | 0.0 | 0.0 | 0.00 | 0.07 | 0.07 | 1 | 1010.0 |
| 20260506201512 | 69 | 142 | 0.0 | 1.7 | 0.00 | 0.07 | 0.07 | 1 | 1010.2 |
| 20260506201010 | 69 | 140 | 0.0 | 1.7 | 0.00 | 0.07 | 0.07 | 1 | 1010.2 |
| 20260506200508 | 69 | 139 | 0.0 | 2.6 | 0.00 | 0.07 | 0.07 | 1 | 1009.8 |
| 20260506200010 | 68 | 139 | 0.0 | 2.6 | 0.00 | 0.07 | 0.07 | 1 | 1010.1 |
| 20260506195509 | 68 | 139 | 0.0 | 2.6 | 0.00 | 0.07 | 0.07 | 1 | 1009.7 |
| 20260506195006 | 68 | 148 | 0.0 | 4.3 | 0.00 | 0.07 | 0.07 | 1 | 1009.4 |
| 20260506194503 | 68 | 148 | 0.9 | 4.3 | 0.00 | 0.07 | 0.07 | 1 | 1009.4 |
| 20260506194001 | 68 | 192 | 0.0 | 2.6 | 0.01 | 0.07 | 0.07 | 1 | 1009.3 |
| 20260506193559 | 68 | 204 | 0.0 | 2.6 | 0.01 | 0.07 | 0.07 | 1 | 1009.3 |
| 20260506193059 | 67 | 204 | 0.0 | 2.6 | 0.01 | 0.07 | 0.07 | 1 | 1009.5 |
| 20260506192556 | 67 | 174 | 0.0 | 2.6 | 0.01 | 0.07 | 0.07 | 1 | 1009.7 |
| 20260506192056 | 67 | 174 | 0.9 | 3.5 | 0.01 | 0.07 | 0.07 | 1 | 1009.8 |
| 20260506191600 | 67 | 173 | 0.9 | 2.6 | 0.01 | 0.07 | 0.07 | 1 | 1010.0 |
| 20260506191053 | 67 | 169 | 0.0 | 4.3 | 0.01 | 0.07 | 0.07 | 1 | 1010.2 |
| 20260506190552 | 66 | 253 | 0.0 | 2.6 | 0.01 | 0.07 | 0.07 | 1 | 1010.3 |
| 20260506190051 | 66 | 253 | 0.0 | 2.6 | 0.01 | 0.07 | 0.07 | 1 | 1010.5 |
| 20260506185547 | 66 | 253 | 0.9 | 2.6 | 0.01 | 0.07 | 0.07 | 1 | 1010.6 |
| 20260506185046 | 66 | 253 | 0.0 | 6.1 | 0.01 | 0.07 | 0.07 | 1 | 1010.4 |
| 20260506184545 | 66 | 205 | 0.9 | 7.0 | 0.01 | 0.07 | 0.07 | 1 | 1010.3 |
| 20260506184045 | 66 | 214 | 0.9 | 6.1 | 0.00 | 0.06 | 0.06 | 1 | 1010.7 |
| 20260506183542 | 66 | 211 | 1.7 | 6.1 | 0.00 | 0.06 | 0.06 | 1 | 1010.4 |
| 20260506183041 | 66 | 229 | 1.7 | 8.7 | 0.00 | 0.06 | 0.06 | 1 | 1010.8 |
| 20260506182539 | 66 | 211 | 0.0 | 3.5 | 0.00 | 0.06 | 0.06 | 1 | 1011.0 |
| 20260506182037 | 66 | 211 | 1.7 | 3.5 | 0.00 | 0.06 | 0.06 | 1 | 1011.1 |
| 20260506181546 | 66 | 234 | 0.9 | 2.6 | 0.00 | 0.06 | 0.06 | 1 | 1011.2 |
| 20260506181035 | 66 | 215 | 0.9 | 3.5 | 0.00 | 0.06 | 0.06 | 1 | 1011.3 |
| 20260506180534 | 66 | 215 | 0.9 | 3.5 | 0.00 | 0.06 | 0.06 | 1 | 1011.3 |
| 20260506180032 | 66 | 207 | 1.7 | 6.1 | 0.00 | 0.06 | 0.06 | 1 | 1011.3 |
| 20260506175530 | 66 | 183 | 1.7 | 5.2 | 0.00 | 0.06 | 0.06 | 1 | 1011.4 |
| 20260506175028 | 66 | 203 | 1.7 | 7.0 | 0.00 | 0.06 | 0.06 | 1 | 1011.4 |
| 20260506174532 | 66 | 243 | 0.9 | 4.3 | 0.00 | 0.06 | 0.06 | 1 | 1011.4 |
| 20260506174028 | 66 | 236 | 0.9 | 7.0 | 0.00 | 0.06 | 0.06 | 1 | 1011.5 |
| 20260506173527 | 66 | 236 | 0.9 | 7.0 | 0.00 | 0.06 | 0.06 | 1 | 1011.5 |
| 20260506173040 | 66 | 61 | 0.9 | 4.3 | 0.00 | 0.06 | 0.06 | 1 | 1011.4 |
| 20260506172521 | 66 | 232 | 0.9 | 4.3 | 0.00 | 0.06 | 0.06 | 1 | 1011.3 |
| 20260506172020 | 66 | 236 | 0.9 | 3.5 | 0.00 | 0.06 | 0.06 | 1 | 1011.4 |
| 20260506171520 | 65 | 225 | 0.0 | 4.3 | 0.00 | 0.06 | 0.06 | 1 | 1011.3 |
| 20260506171019 | 65 | 225 | 0.9 | 4.3 | 0.00 | 0.06 | 0.06 | 1 | 1011.3 |
| 20260506170515 | 65 | 115 | 0.0 | 4.3 | 0.00 | 0.06 | 0.06 | 1 | 1011.3 |
| 20260506170013 | 65 | 180 | 0.0 | 5.2 | 0.00 | 0.06 | 0.06 | 1 | 1011.7 |
| 20260506165515 | 65 | 233 | 0.9 | 5.2 | 0.00 | 0.06 | 0.06 | 1 | 1011.9 |
| 20260506165010 | 65 | 202 | 1.7 | 5.2 | 0.00 | 0.06 | 0.06 | 1 | 1011.6 |
| 20260506164510 | 65 | 200 | 0.9 | 4.3 | 0.00 | 0.06 | 0.06 | 1 | 1011.4 |
| 20260506164007 | 64 | 188 | 0.9 | 4.3 | 0.00 | 0.06 | 0.06 | 1 | 1011.4 |
| 20260506163506 | 64 | 184 | 0.9 | 3.5 | 0.00 | 0.06 | 0.06 | 1 | 1011.7 |
| 20260506163009 | 64 | 178 | 1.7 | 4.3 | 0.00 | 0.06 | 0.06 | 1 | 1011.9 |
| 20260506162508 | 64 | 179 | 0.9 | 2.6 | 0.00 | 0.06 | 0.06 | 1 | 1011.5 |
| 20260506162004 | 64 | 179 | 0.9 | 5.2 | 0.00 | 0.06 | 0.06 | 1 | 1011.4 |
| 20260506161501 | 64 | 213 | 1.7 | 5.2 | 0.00 | 0.06 | 0.06 | 1 | 1011.5 |
| 20260506161059 | 64 | 178 | 0.9 | 3.5 | 0.00 | 0.06 | 0.06 | 1 | 1011.5 |
| 20260506160557 | 64 | 178 | 0.9 | 7.8 | 0.00 | 0.06 | 0.06 | 1 | 1011.5 |
| 20260506160057 | 64 | 24 | 0.9 | 12.2 | 0.00 | 0.06 | 0.06 | 1 | 1011.7 |
| 20260506155558 | 64 | 151 | 1.7 | 6.1 | 0.00 | 0.06 | 0.06 | 1 | 1011.7 |
| 20260506155057 | 64 | 53 | 0.0 | 7.0 | 0.00 | 0.06 | 0.06 | 1 | 1011.9 |
| 20260506154609 | 64 | 178 | 0.9 | 7.0 | 0.01 | 0.06 | 0.06 | 1 | 1011.9 |
| 20260506154050 | 64 | 214 | 0.9 | 3.5 | 0.02 | 0.06 | 0.06 | 1 | 1012.1 |
| 20260506153549 | 64 | 168 | 0.9 | 5.2 | 0.03 | 0.06 | 0.06 | 1 | 1012.2 |
| 20260506153047 | 64 | 184 | 0.9 | 5.2 | 0.04 | 0.06 | 0.06 | 1 | 1012.3 |
| 20260506152547 | 64 | 159 | 0.0 | 3.5 | 0.04 | 0.06 | 0.06 | 1 | 1012.3 |
| 20260506152044 | 64 | 83 | 0.9 | 3.5 | 0.04 | 0.06 | 0.06 | 1 | 1012.4 |
| 20260506151544 | 64 | 159 | 0.9 | 4.3 | 0.05 | 0.06 | 0.06 | 1 | 1012.3 |
| 20260506151043 | 64 | 148 | 1.7 | 4.3 | 0.05 | 0.06 | 0.06 | 1 | 1012.3 |
| 20260506150542 | 64 | 183 | 0.0 | 7.0 | 0.05 | 0.06 | 0.06 | 1 | 1012.3 |
| 20260506150040 | 64 | 180 | 0.9 | 7.0 | 0.06 | 0.06 | 0.06 | 1 | 1012.4 |
| 20260506145540 | 63 | 169 | 0.9 | 4.3 | 0.06 | 0.06 | 0.06 | 1 | 1012.4 |
| 20260506145038 | 63 | 179 | 0.9 | 2.6 | 0.06 | 0.06 | 0.06 | 1 | 1012.6 |
| 20260506144542 | 64 | 183 | 0.0 | 3.5 | 0.05 | 0.05 | 0.05 | 1 | 1012.5 |
| 20260506144034 | 64 | 159 | 0.0 | 2.6 | 0.04 | 0.04 | 0.04 | 1 | 1012.6 |
| 20260506143533 | 64 | 178 | 0.0 | 2.6 | 0.03 | 0.03 | 0.03 | 1 | 1012.9 |
| 20260506143031 | 64 | 174 | 0.0 | 0.0 | 0.02 | 0.02 | 0.02 | 1 | 1012.8 |
| 20260506142529 | 64 | 174 | 0.0 | 0.0 | 0.02 | 0.02 | 0.02 | 1 | 1012.9 |
| 20260506142028 | 64 | 174 | 0.0 | 0.0 | 0.02 | 0.02 | 0.02 | 1 | 1012.8 |
| 20260506141527 | 64 | 174 | 0.0 | 2.6 | 0.01 | 0.01 | 0.01 | 1 | 1012.8 |
| 20260506141025 | 64 | 174 | 0.9 | 5.2 | 0.01 | 0.01 | 0.01 | 1 | 1012.7 |
| 20260506140523 | 65 | 191 | 0.0 | 5.2 | 0.01 | 0.01 | 0.01 | 1 | 1012.6 |
| 20260506140023 | 65 | 156 | 0.9 | 4.3 | 0.00 | 0.00 | 0.00 | 1 | 1012.6 |
| 20260506135521 | 65 | 180 | 1.7 | 3.5 | 0.00 | 0.00 | 0.00 | 1 | 1012.5 |
| 20260506135022 | 65 | 180 | 0.9 | 5.2 | 0.00 | 0.00 | 0.00 | 9 | 1012.6 |
| 20260506134517 | 65 | 236 | 1.7 | 5.2 | 0.00 | 0.00 | 0.00 | 18 | 1012.6 |
| 20260506134017 | 66 | 224 | 1.7 | 4.3 | 0.00 | 0.00 | 0.00 | 20 | 1012.7 |
| 20260506133518 | 65 | 205 | 1.7 | 8.7 | 0.00 | 0.00 | 0.00 | 22 | 1012.6 |
| 20260506133014 | 65 | 160 | 1.7 | 8.7 | 0.00 | 0.00 | 0.00 | 22 | 1012.5 |
| 20260506132512 | 66 | 199 | 1.7 | 5.2 | 0.00 | 0.00 | 0.00 | 22 | 1012.6 |
| 20260506132014 | 66 | 207 | 1.7 | 5.2 | 0.00 | 0.00 | 0.00 | 21 | 1012.4 |
| 20260506131509 | 66 | 212 | 0.9 | 3.5 | 0.00 | 0.00 | 0.00 | 20 | 1012.5 |
| 20260506131011 | 66 | 211 | 0.9 | 7.0 | 0.00 | 0.00 | 0.00 | 20 | 1012.4 |
| 20260506130509 | 65 | 167 | 1.7 | 5.2 | 0.00 | 0.00 | 0.00 | 19 | 1012.2 |
| 20260506130006 | 65 | 223 | 1.7 | 7.0 | 0.00 | 0.00 | 0.00 | 17 | 1012.3 |
| 20260506125503 | 65 | 137 | 1.7 | 6.1 | 0.00 | 0.00 | 0.00 | 17 | 1012.2 |
| 20260506125004 | 65 | 142 | 1.7 | 8.7 | 0.00 | 0.00 | 0.00 | 15 | 1012.1 |
| 20260506124601 | 65 | 167 | 1.7 | 8.7 | 0.00 | 0.00 | 0.00 | 13 | 1012.1 |
| 20260506124058 | 65 | 240 | 0.9 | 3.5 | 0.00 | 0.00 | 0.00 | 11 | 1012.2 |
| 20260506123558 | 65 | 200 | 0.9 | 2.6 | 0.00 | 0.00 | 0.00 | 10 | 1012.1 |
| 20260506123056 | 65 | 200 | 0.9 | 2.6 | 0.00 | 0.00 | 0.00 | 12 | 1012.1 |
| 20260506122554 | 65 | 197 | 1.7 | 7.8 | 0.00 | 0.00 | 0.00 | 12 | 1012.0 |
| 20260506122053 | 65 | 178 | 0.9 | 6.1 | 0.00 | 0.00 | 0.00 | 12 | 1011.9 |
| 20260506121551 | 65 | 200 | 1.7 | 6.1 | 0.00 | 0.00 | 0.00 | 11 | 1011.9 |
| 20260506121049 | 65 | 159 | 0.9 | 6.1 | 0.00 | 0.00 | 0.00 | 8 | 1012.0 |
| 20260506120549 | 65 | 159 | 1.7 | 6.1 | 0.00 | 0.00 | 0.00 | 8 | 1012.1 |
| 20260506120047 | 65 | 186 | 1.7 | 5.2 | 0.00 | 0.00 | 0.00 | 6 | 1012.1 |
| 20260506115544 | 64 | 180 | 1.7 | 5.2 | 0.00 | 0.00 | 0.00 | 6 | 1012.1 |
| 20260506115043 | 64 | 165 | 0.0 | 4.3 | 0.00 | 0.00 | 0.00 | 6 | 1012.2 |
| 20260506114547 | 64 | 165 | 1.7 | 4.3 | 0.00 | 0.00 | 0.00 | 6 | 1012.2 |
| 20260506114040 | 64 | 173 | 0.9 | 3.5 | 0.00 | 0.00 | 0.00 | 5 | 1012.1 |
| 20260506113539 | 64 | 177 | 0.9 | 2.6 | 0.00 | 0.00 | 0.00 | 5 | 1012.1 |
| 20260506113038 | 64 | 173 | 0.9 | 6.1 | 0.00 | 0.00 | 0.00 | 5 | 1012.0 |